Шеридан

США     45°06′11″N   106°48′02″W
темп.,
°C
ветер,
м/с
пор.,
м/с
влажн.,
%
обл.,
%
осадки,
мм/ч
давл.,
гПа
погр.,
м
15 мая, сб
сб1500:00+10зюз1178100 0.3 101610
03:00+8ююз1182100 0.0 101510
06:00+8юв0181100 0.0 101510
09:00+13ююв1360100 0.0 1016419
12:00+18ю3543100 0.0 10131584
15:00+19ююв4438100 0.0 10112346
18:00+17вюв2347100 0.0 1011449
21:00+14ююв4659100 0.0 1012153
16 мая, вс
вс1600:00+11ю1183100 0.0 101313
03:00+9всв118655 0.0 101210
06:00+8ююз11883 0.0 101310
09:00+15зсз10655 0.0 1013461
12:00+19вюв22436 0.0 10121869
15:00+22вюв33338 0.0 10092548
18:00+21юв65392 0.0 10081168
21:00+15юв45575 0.0 101069
17 мая, пн
пн1700:00+12вюв35765 0.0 101185
03:00+10вюв23855 0.0 101034
06:00+10юв358995 0.0 101082
09:00+17ююв676097 0.0 1009567
12:00+22ююв544192 0.0 10071468
15:00+24юв323110 0.0 10052359
18:00+24ююв22319 0.0 10032358
21:00+18юв4552100 0.0 100577
18 мая, вт
вт1800:00+16ююв7146199 0.0 1006388
03:00+13ююв35695 0.0 100685
06:00+11ююв11805 0.0 100611
09:00+18с12565 0.0 1007415
12:00+23св12375 0.0 10052167
15:00+25св222853 0.0 10032799
18:00+25ю222970 0.0 10022503
21:00+18з11565 0.0 100411
19 мая, ср
ср1900:00+15ю115931 0.0 100411
03:00+13зюз22629 0.0 100511
06:00+13ююз22616 0.0 100510
09:00+20юз114393 0.0 1005341
12:00+24всв1234100 0.0 10031850
15:00+26с132498 0.0 10003230
18:00+17ю5116093 0.6 1003439
21:00+15вюв3369100 0.4 100134